Satellite-Ground Cal/Val Site Overpasses Predictions

Prediction of Satellite NPP Overpassing Cal/Val Site: Antarctic Dome C

Ground Cal/Val Site Location: Latitude: -75.10, Longitude: 123.35; Satellite-Ground Site NADIR distance within 100 km.

Table of predicted overpasses for the next 14.0 days since TLE Epoch: 5/16/2015
Interval Starting Time Ending Time Minimum Distance Time Minimum Distance (km)
1 05/16/2015 14:59:40 05/16/2015 15:00:09 05/16/2015 14:59:54 16.60
2 05/17/2015 14:40:59 05/17/2015 14:41:11 05/17/2015 14:41:05 90.42
3 05/18/2015 07:42:30 05/18/2015 07:42:57 05/18/2015 07:42:44 38.23
4 05/19/2015 07:23:44 05/19/2015 07:24:04 05/19/2015 07:23:54 71.88
5 05/21/2015 15:05:57 05/21/2015 15:06:22 05/21/2015 15:06:10 53.89
6 05/22/2015 14:47:08 05/22/2015 14:47:33 05/22/2015 14:47:20 55.22
7 05/23/2015 07:48:50 05/23/2015 07:49:09 05/23/2015 07:48:59 73.77
8 05/24/2015 07:29:56 05/24/2015 07:30:23 05/24/2015 07:30:09 34.19
9 05/26/2015 15:12:20 05/26/2015 15:12:31 05/26/2015 15:12:26 91.95
10 05/27/2015 14:53:21 05/27/2015 14:53:50 05/27/2015 14:53:36 19.26


NCC Satellite Cal/Val Overpasses Prediction Service
